Hourly Data Report for April 02, 2018

KENORA A
ONTARIO
Current Station Operator: NAVCAN

49°47'18.000" N
94°21'47.000" W
409.70 m
6034076
71850
YQK

Download Data

Hourly Data (April 2018)
Hourly Data Report for April 2, 2018
TIME
LST
Temp Definition
°C
Dew Point Definition
°C
Rel Hum Definition
%
Precip. Amount Definition
mm

Wind Dir Definition
10's deg

Wind Spd Definition
km/h
Visibility Definition
km
Stn Press Definition
kPa
Hmdx Definition


Wind Chill Definition


Weather Definition


00:00 -11.9 -18.9 57   34 17 24.1 96.42   -20 Mostly Cloudy
01:00 -13.4 -19.3 62   34 9 24.1 96.46   -19 LegendNANA
02:00 -14.9 -21.2 60   34 12 24.1 96.51   -22 LegendNANA
03:00 -16.2 -22.9 57   35 9 24.1 96.55   -22 Mainly Clear
04:00 -17.6 -22.9 64   1 9 24.1 96.60   -24 LegendNANA
05:00 -18.8 -22.9 70   4 8 24.1 96.61   -25 LegendNANA
06:00 -19.7 -23.0 75   3 10 24.1 96.65   -27 Clear
07:00 -19.1 -22.7 74   4 16 24.1 96.69   -28 LegendNANA
08:00 -18.1 -22.5 69   5 13 24.1 96.74   -26 LegendNANA
09:00 -16.3 -22.1 62   2 9 24.1 96.78   -22 Clear
10:00 -15.2 -23.6 49   4 15 24.1 96.77   -23 LegendNANA
11:00 -13.5 -23.1 45   3 13 24.1 96.80   -20 LegendNANA
12:00 -12.5 -23.7 39   6 6 24.1 96.78   -16 Mainly Clear
13:00 -11.6 -23.8 36   2 4 24.1 96.76   -14 LegendNANA
14:00 -10.7 -22.4 38   34 9 24.1 96.72   -16 LegendNANA
15:00 -9.7 -21.6 38   1 12 24.1 96.74   -16 Mainly Clear
16:00 -9.7 -23.5 32   3 7 24.1 96.70   -14 LegendNANA
17:00 -9.7 -24.4 29   6 4 24.1 96.70   -12 LegendNANA
18:00 -9.7 -23.2 33   1 11 24.1 96.70   -15 Mainly Clear
19:00 -11.5 -23.7 36   2 9 24.1 96.77   -17 LegendNANA
20:00 -12.8 -24.5 38   3 8 24.1 96.84   -18 LegendNANA
21:00 -13.3 -25.3 36   3 6 24.1 96.87   -17 Clear
22:00 -14.3 -25.4 39   3 8 24.1 96.87   -20 LegendNANA
23:00 -15.2 -25.3 43   2 8 24.1 96.92   -21 LegendNANA

Notes on Data Quality.

Legend

  • E = Estimated
  • M = Missing
  • NA = Not Available*
  • [empty] = Indicates an unobserved value
Date modified: